Search

Start typing what you are looking for.

Categories

Regions

RAPSODIEI 21

Sector ROSAL

Contact

PUNCT DE COLECTARE NR. xx


ZONE ARONDATE


  • Rapsodiei nr. 17

  • Rapsodiei nr. 21


NIVEL DEȘEURI

Deșeuri Hârtie Deșeuri Biodegradabile Deșeuri Menajere Deșeuri Plastic Ora de Raportare
95,91 -1.664,68 98,74 -1.679,98 22/09/2021 07:42 AM
95,91 -1.664,17 98,64 -1.680,08 22/09/2021 07:12 AM
95,82 -1.664,36 98,73 -1.678,60 22/09/2021 06:41 AM
95,91 -1.664,36 98,76 -1.677,44 22/09/2021 06:11 AM
95,91 -1.663,34 98,76 -1.677,07 22/09/2021 05:41 AM
95,82 -1.662,12 98,67 -1.676,50 22/09/2021 05:11 AM
95,91 -1.660,46 98,76 -1.676,04 22/09/2021 04:40 AM
95,91 -1.659,21 98,76 -1.675,02 22/09/2021 04:10 AM
95,91 -1.659,68 -711,67 -1.675,41 22/09/2021 03:40 AM
95,89 -1.662,22 98,76 -1.675,61 22/09/2021 03:10 AM
table.wpDataTable { table-layout: fixed !important; } table.wpDataTable td, table.wpDataTable th { white-space: normal !important; }


PARAMETRII

TensiuneBaterie TemperaturaBaterie UmiditateCuva TemperaturaCuva Ora de Raportare
12,74 10,34 NAN NAN 22/09/2021 07:42 AM
12,79 10,54 NAN NAN 22/09/2021 07:12 AM
12,84 10,54 NAN NAN 22/09/2021 06:41 AM
12,77 10,54 NAN NAN 22/09/2021 06:11 AM
12,79 10,64 NAN NAN 22/09/2021 05:41 AM
12,84 10,64 NAN NAN 22/09/2021 05:11 AM
12,89 10,94 NAN NAN 22/09/2021 04:40 AM
12,87 11,04 NAN NAN 22/09/2021 04:10 AM
12,87 11,14 NAN NAN 22/09/2021 03:40 AM
12,96 11,04 NAN NAN 22/09/2021 03:10 AM
table.wpDataTable { table-layout: fixed !important; }